Regional Weather Roundup
Issued by NWS Upton, NY

Current Version | Previous Version | Text Only | Print | Product List | Glossary On
Versions: 1 2 3 4 5 6 7 8 9 10 11 12 13 14 15 16 17 18 19 20 21 22 23 24 25 26 27 28 29 30 31 32 33 34 35 36 37 38 39 40 41 42 43 44 45 46 47 48 49 50
000 ASUS41 KOKX 251005 RWROKX REGIONAL WEATHER ROUNDUP NATIONAL WEATHER SERVICE NEW YORK NY 500 AM EST THU DEC 25 2014 NOTE: "FAIR" INDICATES FEW OR NO CLOUDS BELOW 12,000 FEET WITH NO SIGNIFICANT WEATHER AND/OR OBSTRUCTIONS TO VISIBILITY. NYZ071-072-176-178-NJZ106-104-251100- NEW YORK CITY METRO AREA CITY SKY/WX TMP DP RH WIND PRES REMARKS CENTRAL PARK CLOUDY 59 50 72 W12G25 29.57R LAGUARDIA APRT LGT RAIN 60 50 69 W16G29 29.54R KENNEDY INTL LGT RAIN 56 50 80 W22G31 29.56R NEWARK/LIBERTY LGT RAIN 57 52 82 W13 29.55R BRNX BOT. GARD N/A 61 50 67 W17 29.55R TETERBORO LGT RAIN 60 20 21 W10 29.53R $$ NYZ177-179-078>081-251100- LONG ISLAND NEW YORK CITY SKY/WX TMP DP RH WIND PRES REMARKS FARMINGDALE CLOUDY 54 54 100 SW10 29.55R ISLIP CLOUDY 56 54 93 SW15G25 29.54R SHIRLEY CLOUDY 54 53 97 SW16G24 29.56R WESTHAMPTON CLOUDY 55 53 93 SW10 29.55R MONTAUK POINT N/A 56 55 97 S13G23 29.55S $$ NYZ052-065-067-251100- HUDSON VALLEY CITY SKY/WX TMP DP RH WIND PRES REMARKS WHITE PLAINS LGT RAIN 57 56 96 W8G18 29.52R FOG NEWBURGH LGT RAIN 55 50 82 W21G35 29.53R MONTGOMERY LGT RAIN 55 44 66 W13G21 29.53R POUGHKEEPSIE LGT RAIN 58 48 69 W22G29 29.51R ALBANY CLOUDY 57 42 57 SW20G33 29.47R $$ NJZ001-105-106-008-010-013-015-019>022-104-251100- NEW JERSEY CITY SKY/WX TMP DP RH WIND PRES REMARKS NEWARK/LIBERTY LGT RAIN 57 52 82 W13 29.55R TETERBORO LGT RAIN 60 20 21 W10 29.53R CALDWELL LGT RAIN 57 47 69 W13G23 29.55R MORRISTOWN DRIZZLE 59 50 72 W8 29.57R SOMERVILLE LGT RAIN 56 49 77 VRB6G18 29.58R SUSSEX LGT RAIN 52 42 69 W10G24 29.59R ANDOVER NOT AVBL TRENTON LGT RAIN 55 48 77 W9G20 29.59R MILLVILLE LGT RAIN 53 49 86 W13G23 29.64R ATLANTIC CITY LGT RAIN 57 51 80 NW18G30 29.63R WRIGHTSTOWN LGT RAIN 56 52 85 W10 29.60R TOMS RIVER CLOUDY 57 52 82 W13G25 29.60R BELMAR CLOUDY 57 48 72 W17G32 29.58R $$ PAZ047>061-062-071-251100- EASTERN PENNSYLVANIA CITY SKY/WX TMP DP RH WIND PRES REMARKS PHILADELPHIA LGT RAIN 55 49 80 W8 29.63R ALLENTOWN LGT RAIN 49 42 77 W10G21 29.63R SCRANTON LGT RAIN 45 40 82 SW14G22 29.62R $$ CTZ002-004>006-009-010-012-RIZ004-006-007-MAZ004-011-015-251100- SOUTHERN NEW ENGLAND IN CT CITY SKY/WX TMP DP RH WIND PRES REMARKS BRADLEY INTL FOG 44 42 93 W5 29.47S VSB 1/4 HARTFORD CLOUDY 57 56 96 S9 29.49F DANBURY LGT RAIN 60 56 86 W9 29.50S WTRBRY/OXFORD CLOUDY 57 54 88 SW5 29.51R VSB 1 BRIDGEPORT CLOUDY 52 52 100 SW6 29.51R FOG MERIDEN CLOUDY 54 53 97 S8 29.50S FOG NEW HAVEN CLOUDY 54 51 90 SW6 29.52R CHESTER CLOUDY 55 55 100 S7 29.50F FOG GROTON CLOUDY 52 52 100 SW9 29.53R FOG WILLIMANTIC CLOUDY 59 57 93 SW7 29.50F IN RI CITY SKY/WX TMP DP RH WIND PRES REMARKS PROVIDENCE CLOUDY 60 57 89 SW15G24 29.52S BLOCK ISLAND CLOUDY 55 54 94 SW18G24 29.54S WESTERLY CLOUDY 54 54 100 SW13G21 29.54S IN MA CITY SKY/WX TMP DP RH WIND PRES REMARKS BOSTON LGT RAIN 58 58 100 S10 29.47F WORCESTER LGT RAIN 59 58 96 SW16 29.47F WESTFIELD LGT RAIN 43 41 93 CALM 29.47S VSB 1/2 PROVINCETOWN CLOUDY 57 54 88 SW17 29.54S NANTUCKET LGT RAIN 56 55 97 S17 29.59F VSB 1/4 $$ ANZ330-335-338-340-345-350-353-355-251100- COASTAL MARINE OBSERVATIONS STATION/POSITION TIME SKY/WX TEMP WIND PRES VSBY WAVE AIR SEA DIR/SP/G HT/PER (UTC) (F) (DEG/KT/KT) (MB) (MI) (FT/S) NY HARB ENTRANCE 1000 51 46 230/ 14/ 17 1001.0 6/ 7 4S FIRE IS 1000 47 N/A 8/ 7 20S FIRE ISLAND 0900 55 50 1000.5 8/ 7 23SW MTP 1000 N/A 8/ 7 HUDSON CANYON 1000 59 56 220/ 19/ 21 1001.9 8/ 8 EXECUTION ROCKS 1000 52 42 230/ 12/ 19 N/A WESTERN LI SOUND 1000 49 250/ 8/ 12 N/A 0 CENTRAL LI SOUND 1000 50 44 200/ 16/ 17 N/A 2/ 3 EASTERN LI SOUND NOT AVBL ROBBINS REEF 1000 60 998.9 $$ >>>>>>>>>>>>>>>>>>>>>>>>>>>> KEY <<<<<<<<<<<<<<<<<<<<<<<<<<< > < > SKY/WX - SKY CONDITION/PRESENT WEATHER < > TMP - TEMPERATURE IN FAHRENHEIT < > DP - DEWPOINT IN FAHRENHEIT < > RH - RELATIVE HUMIDITY IN PERCENT < > WIND - DIRECTION AND SPEED IN MPH < > PRES - MEAN SEA LEVEL PRESSURE IN INCHES OF HG < > WCI - WIND CHILL INDEX < > VSB - VISIBILITY IN MILES < > HX - HEAT INDEX < > TC - TEMPERATURE IN CELSIUS < > VRB - VARIABLE WIND DIRECTION < > < >>>>>>>>>>>>>>>>>>>>>>>>>>>> KEY <<<<<<<<<<<<<<<<<<<<<<<<<<<

USA.gov is the U.S. government's official web portal to all federal, state and local government web resources and services.